Year,Month,Day,Hour,Minute,Value (Times are PST for temperature in C)
2015,07,08,00,00,15.90
2015,07,08,00,01,15.90
2015,07,08,00,02,15.80
2015,07,08,00,03,15.80
2015,07,08,00,04,15.80
2015,07,08,00,05,15.80
2015,07,08,00,06,15.80
2015,07,08,00,07,15.80
2015,07,08,00,08,15.80
2015,07,08,00,09,15.80
2015,07,08,00,10,15.70
2015,07,08,00,11,15.70
2015,07,08,00,12,15.70
2015,07,08,00,13,15.70
2015,07,08,00,14,15.70
2015,07,08,00,15,15.70
2015,07,08,00,16,15.70
2015,07,08,00,17,15.70
2015,07,08,00,18,15.60
2015,07,08,00,19,15.60
2015,07,08,00,20,15.60
2015,07,08,00,21,15.60
2015,07,08,00,22,15.60
2015,07,08,00,23,15.60
2015,07,08,00,24,15.60
2015,07,08,00,25,15.60
2015,07,08,00,26,15.60
2015,07,08,00,27,15.60
2015,07,08,00,28,15.60
2015,07,08,00,29,15.60
2015,07,08,00,30,15.60
2015,07,08,00,31,15.50
2015,07,08,00,32,15.50
2015,07,08,00,33,15.50
2015,07,08,00,34,15.50
2015,07,08,00,35,15.50
2015,07,08,00,36,15.50
2015,07,08,00,37,15.50
2015,07,08,00,38,15.40
2015,07,08,00,39,15.40
2015,07,08,00,40,15.40
2015,07,08,00,41,15.40
2015,07,08,00,42,15.40
2015,07,08,00,43,15.40
2015,07,08,00,44,15.40
2015,07,08,00,45,15.40
2015,07,08,00,46,15.40
2015,07,08,00,47,15.40
2015,07,08,00,48,15.40
2015,07,08,00,49,15.40
2015,07,08,00,50,15.40
2015,07,08,00,51,15.40
2015,07,08,00,52,15.40
2015,07,08,00,53,15.40
2015,07,08,00,54,15.40
2015,07,08,00,55,15.40
2015,07,08,00,56,15.40
2015,07,08,00,57,15.40
2015,07,08,00,58,15.40
2015,07,08,00,59,15.40
2015,07,08,01,00,15.40
2015,07,08,01,01,15.40
2015,07,08,01,02,15.40
2015,07,08,01,03,15.30
2015,07,08,01,04,15.30
2015,07,08,01,05,15.30
2015,07,08,01,06,15.30
2015,07,08,01,07,15.30
2015,07,08,01,08,15.30
2015,07,08,01,09,15.30
2015,07,08,01,10,15.30
2015,07,08,01,11,15.20
2015,07,08,01,12,15.20
2015,07,08,01,13,15.10
2015,07,08,01,14,15.10
2015,07,08,01,15,15.00
2015,07,08,01,16,15.00
2015,07,08,01,17,14.90
2015,07,08,01,18,14.90
2015,07,08,01,19,14.90
2015,07,08,01,20,14.80
2015,07,08,01,21,14.80
2015,07,08,01,22,14.80
2015,07,08,01,23,14.80
2015,07,08,01,24,14.70
2015,07,08,01,25,14.70
2015,07,08,01,26,14.60
2015,07,08,01,27,14.60
2015,07,08,01,28,14.60
2015,07,08,01,29,14.50
2015,07,08,01,30,14.50
2015,07,08,01,31,14.50
2015,07,08,01,32,14.40
2015,07,08,01,33,14.40
2015,07,08,01,34,14.40
2015,07,08,01,35,14.40
2015,07,08,01,36,14.40
2015,07,08,01,37,14.40
2015,07,08,01,38,14.40
2015,07,08,01,39,14.40
2015,07,08,01,40,14.40
2015,07,08,01,41,14.40
2015,07,08,01,42,14.40
2015,07,08,01,43,14.40
2015,07,08,01,44,14.40
2015,07,08,01,45,14.40
2015,07,08,01,46,14.40
2015,07,08,01,47,14.40
2015,07,08,01,48,14.40
2015,07,08,01,49,14.40
2015,07,08,01,50,14.40
2015,07,08,01,51,14.40
2015,07,08,01,52,14.30
2015,07,08,01,53,14.30
2015,07,08,01,54,14.30
2015,07,08,01,55,14.30
2015,07,08,01,56,14.30
2015,07,08,01,57,14.30
2015,07,08,01,58,14.30
2015,07,08,01,59,14.30
2015,07,08,02,00,14.30
2015,07,08,02,01,14.30
2015,07,08,02,02,14.30
2015,07,08,02,03,14.30
2015,07,08,02,04,14.20
2015,07,08,02,05,14.20
2015,07,08,02,06,14.20
2015,07,08,02,07,14.20
2015,07,08,02,08,14.20
2015,07,08,02,09,14.20
2015,07,08,02,10,14.20
2015,07,08,02,11,14.20
2015,07,08,02,12,14.20
2015,07,08,02,13,14.20
2015,07,08,02,14,14.20
2015,07,08,02,15,14.20
2015,07,08,02,16,14.20
2015,07,08,02,17,14.20
2015,07,08,02,18,14.20
2015,07,08,02,19,14.20
2015,07,08,02,20,14.20
2015,07,08,02,21,14.20
2015,07,08,02,22,14.20
2015,07,08,02,23,14.20
2015,07,08,02,24,14.20
2015,07,08,02,25,14.20
2015,07,08,02,26,14.20
2015,07,08,02,27,14.20
2015,07,08,02,28,14.20
2015,07,08,02,29,14.20
2015,07,08,02,30,14.20
2015,07,08,02,31,14.20
2015,07,08,02,32,14.20
2015,07,08,02,33,14.20
2015,07,08,02,34,14.20
2015,07,08,02,35,14.20
2015,07,08,02,36,14.20
2015,07,08,02,37,14.20
2015,07,08,02,38,14.20
2015,07,08,02,39,14.20
2015,07,08,02,40,14.10
2015,07,08,02,41,14.10
2015,07,08,02,42,14.10
2015,07,08,02,43,14.10
2015,07,08,02,44,14.10
2015,07,08,02,45,14.10
2015,07,08,02,46,14.10
2015,07,08,02,47,14.10
2015,07,08,02,48,14.00
2015,07,08,02,49,14.00
2015,07,08,02,50,14.00
2015,07,08,02,51,13.90
2015,07,08,02,52,13.90
2015,07,08,02,53,13.90
2015,07,08,02,54,13.80
2015,07,08,02,55,13.80
2015,07,08,02,56,13.70
2015,07,08,02,57,13.70
2015,07,08,02,58,13.70
2015,07,08,02,59,13.60
2015,07,08,03,00,13.60
2015,07,08,03,01,13.60
2015,07,08,03,02,13.50
2015,07,08,03,03,13.50
2015,07,08,03,04,13.50
2015,07,08,03,05,13.40
2015,07,08,03,06,13.40
2015,07,08,03,07,13.40
2015,07,08,03,08,13.30
2015,07,08,03,09,13.30
2015,07,08,03,10,13.30
2015,07,08,03,11,13.30
2015,07,08,03,12,13.30
2015,07,08,03,13,13.30
2015,07,08,03,14,13.30
2015,07,08,03,15,13.20
2015,07,08,03,16,13.20
2015,07,08,03,17,13.20
2015,07,08,03,18,13.20
2015,07,08,03,19,13.20
2015,07,08,03,20,13.20
2015,07,08,03,21,13.20
2015,07,08,03,22,13.20
2015,07,08,03,23,13.10
2015,07,08,03,24,13.10
2015,07,08,03,25,13.10
2015,07,08,03,26,13.10
2015,07,08,03,27,13.10
2015,07,08,03,28,13.10
2015,07,08,03,29,13.10
2015,07,08,03,30,13.10
2015,07,08,03,31,13.10
2015,07,08,03,32,13.10
2015,07,08,03,33,13.10
2015,07,08,03,34,13.00
2015,07,08,03,35,13.00
2015,07,08,03,36,13.00
2015,07,08,03,37,13.00
2015,07,08,03,38,13.00
2015,07,08,03,39,13.00
2015,07,08,03,40,13.00
2015,07,08,03,41,13.00
2015,07,08,03,42,13.00
2015,07,08,03,43,13.00
2015,07,08,03,44,13.00
2015,07,08,03,45,13.00
2015,07,08,03,46,13.00
2015,07,08,03,47,12.90
2015,07,08,03,48,12.90
2015,07,08,03,49,12.90
2015,07,08,03,50,12.90
2015,07,08,03,51,12.90
2015,07,08,03,52,12.90
2015,07,08,03,53,12.90
2015,07,08,03,54,12.90
2015,07,08,03,55,12.90
2015,07,08,03,56,12.90
2015,07,08,03,57,12.90
2015,07,08,03,58,12.90
2015,07,08,03,59,12.90
2015,07,08,04,00,12.90
2015,07,08,04,01,12.80
2015,07,08,04,02,12.80
2015,07,08,04,03,12.80
2015,07,08,04,04,12.90
2015,07,08,04,05,12.90
2015,07,08,04,06,12.90
2015,07,08,04,07,12.90
2015,07,08,04,08,12.90
2015,07,08,04,09,12.90
2015,07,08,04,10,12.90
2015,07,08,04,11,12.90
2015,07,08,04,12,12.80
2015,07,08,04,13,12.80
2015,07,08,04,14,12.80
2015,07,08,04,15,12.80
2015,07,08,04,16,12.90
2015,07,08,04,17,12.90
2015,07,08,04,18,12.90
2015,07,08,04,19,12.90
2015,07,08,04,20,12.90
2015,07,08,04,21,12.90
2015,07,08,04,22,12.90
2015,07,08,04,23,12.90
2015,07,08,04,24,12.90
2015,07,08,04,25,12.90
2015,07,08,04,26,12.90
2015,07,08,04,27,12.90
2015,07,08,04,28,12.90
2015,07,08,04,29,12.90
2015,07,08,04,30,12.90
2015,07,08,04,31,12.80
2015,07,08,04,32,12.80
2015,07,08,04,33,12.80
2015,07,08,04,34,12.80
2015,07,08,04,35,12.80
2015,07,08,04,36,12.80
2015,07,08,04,37,12.80
2015,07,08,04,38,12.80
2015,07,08,04,39,12.80
2015,07,08,04,40,12.80
2015,07,08,04,41,12.80
2015,07,08,04,42,12.80
2015,07,08,04,43,12.80
2015,07,08,04,44,12.90
2015,07,08,04,45,12.90
2015,07,08,04,46,12.90
2015,07,08,04,47,12.90
2015,07,08,04,48,12.90
2015,07,08,04,49,12.90
2015,07,08,04,50,12.90
2015,07,08,04,51,12.90
2015,07,08,04,52,12.90
2015,07,08,04,53,12.90
2015,07,08,04,54,12.90
2015,07,08,04,55,12.90
2015,07,08,04,56,12.90
2015,07,08,04,57,12.90
2015,07,08,04,58,12.90
2015,07,08,04,59,12.90
2015,07,08,05,00,12.90
2015,07,08,05,01,12.90
2015,07,08,05,02,12.90
2015,07,08,05,03,12.80
2015,07,08,05,04,12.80
2015,07,08,05,05,12.80
2015,07,08,05,06,12.80
2015,07,08,05,07,12.80
2015,07,08,05,08,12.80
2015,07,08,05,09,12.80
2015,07,08,05,10,12.80
2015,07,08,05,11,12.80
2015,07,08,05,12,12.80
2015,07,08,05,13,12.80
2015,07,08,05,14,12.80
2015,07,08,05,15,12.80
2015,07,08,05,16,12.80
2015,07,08,05,17,12.80
2015,07,08,05,18,12.80
2015,07,08,05,19,12.70
2015,07,08,05,20,12.70
2015,07,08,05,21,12.70
2015,07,08,05,22,12.70
2015,07,08,05,23,12.70
2015,07,08,05,24,12.70
2015,07,08,05,25,12.70
2015,07,08,05,26,12.70
2015,07,08,05,27,12.70
2015,07,08,05,28,12.70
2015,07,08,05,29,12.70
2015,07,08,05,30,12.70
2015,07,08,05,31,12.70
2015,07,08,05,32,12.70
2015,07,08,05,33,12.70
2015,07,08,05,34,12.70
2015,07,08,05,35,12.70
2015,07,08,05,36,12.70
2015,07,08,05,37,12.70
2015,07,08,05,38,12.80
2015,07,08,05,39,12.80
2015,07,08,05,40,12.80
2015,07,08,05,41,12.80
2015,07,08,05,42,12.80
2015,07,08,05,43,12.70
2015,07,08,05,44,12.70
2015,07,08,05,45,12.70
2015,07,08,05,46,12.70
2015,07,08,05,47,12.70
2015,07,08,05,48,12.70
2015,07,08,05,49,12.70
2015,07,08,05,50,12.80
2015,07,08,05,51,12.80
2015,07,08,05,52,12.80
2015,07,08,05,53,12.80
2015,07,08,05,54,12.80
2015,07,08,05,55,12.80
2015,07,08,05,56,12.80
2015,07,08,05,57,12.80
2015,07,08,05,58,12.80
2015,07,08,05,59,12.80
2015,07,08,06,00,12.80
2015,07,08,06,01,12.80
2015,07,08,06,02,12.80
2015,07,08,06,03,12.80
2015,07,08,06,04,12.80
2015,07,08,06,05,12.80
2015,07,08,06,06,12.80
2015,07,08,06,07,12.80
2015,07,08,06,08,12.80
2015,07,08,06,09,12.80
2015,07,08,06,10,12.80
2015,07,08,06,11,12.80
2015,07,08,06,12,12.80
2015,07,08,06,13,12.90
2015,07,08,06,14,12.90
2015,07,08,06,15,12.90
2015,07,08,06,16,12.90
2015,07,08,06,17,12.90
2015,07,08,06,18,12.90
2015,07,08,06,19,13.00
2015,07,08,06,20,13.00
2015,07,08,06,21,13.00
2015,07,08,06,22,13.00
2015,07,08,06,23,13.00
2015,07,08,06,24,13.00
2015,07,08,06,25,13.00
2015,07,08,06,26,13.00
2015,07,08,06,27,13.00
2015,07,08,06,28,13.00
2015,07,08,06,29,13.00
2015,07,08,06,30,13.10
2015,07,08,06,31,13.10
2015,07,08,06,32,13.10
2015,07,08,06,33,13.10
2015,07,08,06,34,13.10
2015,07,08,06,35,13.10
2015,07,08,06,36,13.20
2015,07,08,06,37,13.20
2015,07,08,06,38,13.20
2015,07,08,06,39,13.30
2015,07,08,06,40,13.30
2015,07,08,06,41,13.30
2015,07,08,06,42,13.30
2015,07,08,06,43,13.30
2015,07,08,06,44,13.40
2015,07,08,06,45,13.40
2015,07,08,06,46,13.50
2015,07,08,06,47,13.50
2015,07,08,06,48,13.50
2015,07,08,06,49,13.60
2015,07,08,06,50,13.60
2015,07,08,06,51,13.60
2015,07,08,06,52,13.70
2015,07,08,06,53,13.70
2015,07,08,06,54,13.70
2015,07,08,06,55,13.70
2015,07,08,06,56,13.70
2015,07,08,06,57,13.70
2015,07,08,06,58,13.70
2015,07,08,06,59,13.80
2015,07,08,07,00,13.80
2015,07,08,07,01,13.90
2015,07,08,07,02,13.90
2015,07,08,07,03,13.90
2015,07,08,07,04,14.00
2015,07,08,07,05,14.00
2015,07,08,07,06,14.10
2015,07,08,07,07,14.20
2015,07,08,07,08,14.20
2015,07,08,07,09,14.20
2015,07,08,07,10,14.20
2015,07,08,07,11,14.20
2015,07,08,07,12,14.30
2015,07,08,07,13,14.30
2015,07,08,07,14,14.40
2015,07,08,07,15,14.40
2015,07,08,07,16,14.50
2015,07,08,07,17,14.50
2015,07,08,07,18,14.60
2015,07,08,07,19,14.60
2015,07,08,07,20,14.60
2015,07,08,07,21,14.60
2015,07,08,07,22,14.70
2015,07,08,07,23,14.70
2015,07,08,07,24,14.80
2015,07,08,07,25,14.80
2015,07,08,07,26,14.90
2015,07,08,07,27,14.90
2015,07,08,07,28,15.00
2015,07,08,07,29,15.00
2015,07,08,07,30,15.10
2015,07,08,07,31,15.20
2015,07,08,07,32,15.20
2015,07,08,07,33,15.30
2015,07,08,07,34,15.30
2015,07,08,07,35,15.30
2015,07,08,07,36,15.40
2015,07,08,07,37,15.40
2015,07,08,07,38,15.50
2015,07,08,07,39,15.50
2015,07,08,07,40,15.50
2015,07,08,07,41,15.60
2015,07,08,07,42,15.60
2015,07,08,07,43,15.70
2015,07,08,07,44,15.70
2015,07,08,07,45,15.70
2015,07,08,07,46,15.70
2015,07,08,07,47,15.70
2015,07,08,07,48,15.80
2015,07,08,07,49,15.80
2015,07,08,07,50,15.80
2015,07,08,07,51,15.90
2015,07,08,07,52,15.90
2015,07,08,07,53,16.10
2015,07,08,07,54,16.10
2015,07,08,07,55,16.20
2015,07,08,07,56,16.30
2015,07,08,07,57,16.30
2015,07,08,07,58,16.40
2015,07,08,07,59,16.40
2015,07,08,08,00,16.40
2015,07,08,08,01,16.40
2015,07,08,08,02,16.40
2015,07,08,08,03,16.50
2015,07,08,08,04,16.60
2015,07,08,08,05,16.60
2015,07,08,08,06,16.60
2015,07,08,08,07,16.60
2015,07,08,08,08,16.60
2015,07,08,08,09,16.50
2015,07,08,08,10,16.40
2015,07,08,08,11,16.40
2015,07,08,08,12,16.40
2015,07,08,08,13,16.40
2015,07,08,08,14,16.40
2015,07,08,08,15,16.40
2015,07,08,08,16,16.40
2015,07,08,08,17,16.40
2015,07,08,08,18,16.40
2015,07,08,08,19,16.40
2015,07,08,08,20,16.50
2015,07,08,08,21,16.60
2015,07,08,08,22,16.60
2015,07,08,08,23,16.60
2015,07,08,08,24,16.70
2015,07,08,08,25,16.70
2015,07,08,08,26,16.80
2015,07,08,08,27,16.80
2015,07,08,08,28,16.80
2015,07,08,08,29,16.80
2015,07,08,08,30,16.80
2015,07,08,08,31,16.90
2015,07,08,08,32,16.90
2015,07,08,08,33,16.90
2015,07,08,08,34,17.00
2015,07,08,08,35,17.00
2015,07,08,08,36,17.00
2015,07,08,08,37,17.10
2015,07,08,08,38,17.30
2015,07,08,08,39,17.30
2015,07,08,08,40,17.40
2015,07,08,08,41,17.40
2015,07,08,08,42,17.50
2015,07,08,08,43,17.60
2015,07,08,08,44,17.60
2015,07,08,08,45,17.60
2015,07,08,08,46,17.70
2015,07,08,08,47,17.70
2015,07,08,08,48,17.80
2015,07,08,08,49,17.80
2015,07,08,08,50,17.80
2015,07,08,08,51,17.80
2015,07,08,08,52,17.70
2015,07,08,08,53,17.70
2015,07,08,08,54,17.80
2015,07,08,08,55,17.80
2015,07,08,08,56,17.80
2015,07,08,08,57,17.90
2015,07,08,08,58,17.90
2015,07,08,08,59,17.90
2015,07,08,09,00,18.00
2015,07,08,09,01,18.10
2015,07,08,09,02,18.20
2015,07,08,09,03,18.20
2015,07,08,09,04,18.30
2015,07,08,09,05,18.40
2015,07,08,09,06,18.50
2015,07,08,09,07,18.50
2015,07,08,09,08,18.60
2015,07,08,09,09,18.60
2015,07,08,09,10,18.70
2015,07,08,09,11,18.80
2015,07,08,09,12,18.80
2015,07,08,09,13,18.90
2015,07,08,09,14,18.90
2015,07,08,09,15,18.90
2015,07,08,09,16,19.00
2015,07,08,09,17,19.10
2015,07,08,09,18,19.20
2015,07,08,09,19,19.20
2015,07,08,09,20,19.30
2015,07,08,09,21,19.30
2015,07,08,09,22,19.40
2015,07,08,09,23,19.40
2015,07,08,09,24,19.50
2015,07,08,09,25,19.50
2015,07,08,09,26,19.60
2015,07,08,09,27,19.60
2015,07,08,09,28,19.70
2015,07,08,09,29,19.80
2015,07,08,09,30,19.80
2015,07,08,09,31,19.90
2015,07,08,09,32,19.90
2015,07,08,09,33,19.80
2015,07,08,09,34,19.70
2015,07,08,09,35,19.60
2015,07,08,09,36,19.50
2015,07,08,09,37,19.30
2015,07,08,09,38,19.20
2015,07,08,09,39,19.10
2015,07,08,09,40,19.10
2015,07,08,09,41,19.10
2015,07,08,09,42,19.10
2015,07,08,09,43,19.10
2015,07,08,09,44,19.10
2015,07,08,09,45,19.20
2015,07,08,09,46,19.20
2015,07,08,09,47,19.30
2015,07,08,09,48,19.40
2015,07,08,09,49,19.60
2015,07,08,09,50,19.70
2015,07,08,09,51,19.90
2015,07,08,09,52,20.00
2015,07,08,09,53,20.20
2015,07,08,09,54,20.30
2015,07,08,09,55,20.40
2015,07,08,09,56,20.60
2015,07,08,09,57,20.60
2015,07,08,09,58,20.70
2015,07,08,09,59,20.70
2015,07,08,10,00,20.80
2015,07,08,10,01,20.90
2015,07,08,10,02,20.90
2015,07,08,10,03,20.80
2015,07,08,10,04,20.80
2015,07,08,10,05,20.90
2015,07,08,10,06,21.00
2015,07,08,10,07,21.00
2015,07,08,10,08,21.00
2015,07,08,10,09,21.00
2015,07,08,10,10,21.00
2015,07,08,10,11,21.00
2015,07,08,10,12,21.00
2015,07,08,10,13,21.00
2015,07,08,10,14,21.10
2015,07,08,10,15,21.20
2015,07,08,10,16,21.20
2015,07,08,10,17,21.30
2015,07,08,10,18,21.30
2015,07,08,10,19,21.40
2015,07,08,10,20,21.50
2015,07,08,10,21,21.60
2015,07,08,10,22,21.60
2015,07,08,10,23,21.70
2015,07,08,10,24,21.80
2015,07,08,10,25,21.90
2015,07,08,10,26,21.90
2015,07,08,10,27,21.90
2015,07,08,10,28,21.90
2015,07,08,10,29,21.90
2015,07,08,10,30,21.90
2015,07,08,10,31,21.90
2015,07,08,10,32,21.90
2015,07,08,10,33,22.00
2015,07,08,10,34,22.00
2015,07,08,10,35,21.90
2015,07,08,10,36,21.90
2015,07,08,10,37,21.80
2015,07,08,10,38,21.90
2015,07,08,10,39,21.90
2015,07,08,10,40,21.90
2015,07,08,10,41,21.80
2015,07,08,10,42,21.70
2015,07,08,10,43,21.70
2015,07,08,10,44,21.70
2015,07,08,10,45,21.70
2015,07,08,10,46,21.70
2015,07,08,10,47,21.70
2015,07,08,10,48,21.80
2015,07,08,10,49,21.90
2015,07,08,10,50,21.90
2015,07,08,10,51,21.90
2015,07,08,10,52,21.90
2015,07,08,10,53,21.90
2015,07,08,10,54,22.00
2015,07,08,10,55,21.90
2015,07,08,10,56,21.90
2015,07,08,10,57,21.90
2015,07,08,10,58,21.80
2015,07,08,10,59,21.70
2015,07,08,11,00,21.60
2015,07,08,11,01,21.60
2015,07,08,11,02,21.50
2015,07,08,11,03,21.40
2015,07,08,11,04,21.50
2015,07,08,11,05,21.60
2015,07,08,11,06,21.70
2015,07,08,11,07,21.80
2015,07,08,11,08,21.70
2015,07,08,11,09,21.70
2015,07,08,11,10,21.60
2015,07,08,11,11,21.60
2015,07,08,11,12,21.60
2015,07,08,11,13,21.70
2015,07,08,11,14,21.80
2015,07,08,11,15,21.90
2015,07,08,11,16,22.00
2015,07,08,11,17,22.00
2015,07,08,11,18,22.10
2015,07,08,11,19,22.10
2015,07,08,11,20,22.00
2015,07,08,11,21,22.00
2015,07,08,11,22,22.10
2015,07,08,11,23,22.10
2015,07,08,11,24,22.10
2015,07,08,11,25,22.00
2015,07,08,11,26,22.00
2015,07,08,11,27,22.10
2015,07,08,11,28,22.20
2015,07,08,11,29,22.20
2015,07,08,11,30,22.20
2015,07,08,11,31,22.10
2015,07,08,11,32,22.00
2015,07,08,11,33,21.90
2015,07,08,11,34,21.90
2015,07,08,11,35,21.90
2015,07,08,11,36,22.00
2015,07,08,11,37,22.10
2015,07,08,11,38,22.30
2015,07,08,11,39,22.40
2015,07,08,11,40,22.60
2015,07,08,11,41,22.60
2015,07,08,11,42,22.60
2015,07,08,11,43,22.70
2015,07,08,11,44,22.70
2015,07,08,11,45,22.80
2015,07,08,11,46,22.90
2015,07,08,11,47,23.00
2015,07,08,11,48,23.10
2015,07,08,11,49,23.30
2015,07,08,11,50,23.40
2015,07,08,11,51,23.50
2015,07,08,11,52,23.60
2015,07,08,11,53,23.60
2015,07,08,11,54,23.70
2015,07,08,11,55,23.70
2015,07,08,11,56,23.70
2015,07,08,11,57,23.80
2015,07,08,11,58,23.90
2015,07,08,11,59,24.10
2015,07,08,12,00,24.20
2015,07,08,12,01,24.30
2015,07,08,12,02,24.30
2015,07,08,12,03,24.40
2015,07,08,12,04,24.50
2015,07,08,12,05,24.50
2015,07,08,12,06,24.50
2015,07,08,12,07,24.40
2015,07,08,12,08,24.40
2015,07,08,12,09,24.30
2015,07,08,12,10,24.20
2015,07,08,12,11,24.10
2015,07,08,12,12,24.10
2015,07,08,12,13,24.10
2015,07,08,12,14,24.10
2015,07,08,12,15,24.10
2015,07,08,12,16,24.10
2015,07,08,12,17,24.20
2015,07,08,12,18,24.20
2015,07,08,12,19,24.30
2015,07,08,12,20,24.30
2015,07,08,12,21,24.20
2015,07,08,12,22,24.10
2015,07,08,12,23,23.90
2015,07,08,12,24,23.70
2015,07,08,12,25,23.60
2015,07,08,12,26,23.50
2015,07,08,12,27,23.40
2015,07,08,12,28,23.40
2015,07,08,12,29,23.40
2015,07,08,12,30,23.30
2015,07,08,12,31,23.30
2015,07,08,12,32,23.20
2015,07,08,12,33,23.20
2015,07,08,12,34,23.10
2015,07,08,12,35,22.90
2015,07,08,12,36,22.80
2015,07,08,12,37,22.70
2015,07,08,12,38,22.60
2015,07,08,12,39,22.50
2015,07,08,12,40,22.40
2015,07,08,12,41,22.50
2015,07,08,12,42,22.50
2015,07,08,12,43,22.50
2015,07,08,12,44,22.60
2015,07,08,12,45,22.60
2015,07,08,12,46,22.50
2015,07,08,12,47,22.50
2015,07,08,12,48,22.50
2015,07,08,12,49,22.50
2015,07,08,12,50,22.40
2015,07,08,12,51,22.40
2015,07,08,12,52,22.40
2015,07,08,12,53,22.50
2015,07,08,12,54,22.60
2015,07,08,12,55,22.50
2015,07,08,12,56,22.40
2015,07,08,12,57,22.50
2015,07,08,12,58,22.50
2015,07,08,12,59,22.30
2015,07,08,13,00,22.30
2015,07,08,13,01,22.20
2015,07,08,13,02,22.30
2015,07,08,13,03,22.50
2015,07,08,13,04,22.60
2015,07,08,13,05,22.70
2015,07,08,13,06,22.70
2015,07,08,13,07,22.70
2015,07,08,13,08,22.80
2015,07,08,13,09,22.90
2015,07,08,13,10,22.90
2015,07,08,13,11,22.90
2015,07,08,13,12,22.80
2015,07,08,13,13,22.70
2015,07,08,13,14,22.60
2015,07,08,13,15,22.60
2015,07,08,13,16,22.60
2015,07,08,13,17,22.60
2015,07,08,13,18,22.60
2015,07,08,13,19,22.50
2015,07,08,13,20,22.50
2015,07,08,13,21,22.50
2015,07,08,13,22,22.50
2015,07,08,13,23,22.60
2015,07,08,13,24,22.70
2015,07,08,13,25,22.80
2015,07,08,13,26,22.90
2015,07,08,13,27,23.00
2015,07,08,13,28,23.20
2015,07,08,13,29,23.20
2015,07,08,13,30,23.20
2015,07,08,13,31,23.10
2015,07,08,13,32,22.90
2015,07,08,13,33,22.90
2015,07,08,13,34,22.80
2015,07,08,13,35,22.70
2015,07,08,13,36,22.60
2015,07,08,13,37,22.60
2015,07,08,13,38,22.60
2015,07,08,13,39,22.60
2015,07,08,13,40,22.50
2015,07,08,13,41,22.50
2015,07,08,13,42,22.50
2015,07,08,13,43,22.50
2015,07,08,13,44,22.50
2015,07,08,13,45,22.60
2015,07,08,13,46,22.80
2015,07,08,13,47,23.00
2015,07,08,13,48,23.10
2015,07,08,13,49,23.30
2015,07,08,13,50,23.30
2015,07,08,13,51,23.30
2015,07,08,13,52,23.20
2015,07,08,13,53,23.10
2015,07,08,13,54,23.10
2015,07,08,13,55,23.20
2015,07,08,13,56,23.30
2015,07,08,13,57,23.30
2015,07,08,13,58,23.40
2015,07,08,13,59,23.40
2015,07,08,14,00,23.40
2015,07,08,14,01,23.40
2015,07,08,14,02,23.40
2015,07,08,14,03,23.40
2015,07,08,14,04,23.30
2015,07,08,14,05,23.30
2015,07,08,14,06,23.30
2015,07,08,14,07,23.30
2015,07,08,14,08,23.30
2015,07,08,14,09,23.40
2015,07,08,14,10,23.40
2015,07,08,14,11,23.30
2015,07,08,14,12,23.30
2015,07,08,14,13,23.30
2015,07,08,14,14,23.40
2015,07,08,14,15,23.40
2015,07,08,14,16,23.40
2015,07,08,14,17,23.60
2015,07,08,14,18,23.60
2015,07,08,14,19,23.70
2015,07,08,14,20,23.80
2015,07,08,14,21,23.90
2015,07,08,14,22,23.90
2015,07,08,14,23,24.00
2015,07,08,14,24,24.10
2015,07,08,14,25,24.10
2015,07,08,14,26,24.10
2015,07,08,14,27,24.10
2015,07,08,14,28,24.10
2015,07,08,14,29,24.10
2015,07,08,14,30,24.10
2015,07,08,14,31,24.10
2015,07,08,14,32,24.10
2015,07,08,14,33,24.10
2015,07,08,14,34,24.10
2015,07,08,14,35,24.10
2015,07,08,14,36,24.10
2015,07,08,14,37,24.10
2015,07,08,14,38,24.10
2015,07,08,14,39,24.10
2015,07,08,14,40,24.10
2015,07,08,14,41,24.10
2015,07,08,14,42,24.10
2015,07,08,14,43,24.10
2015,07,08,14,44,24.20
2015,07,08,14,45,24.30
2015,07,08,14,46,24.30
2015,07,08,14,47,24.30
2015,07,08,14,48,24.20
2015,07,08,14,49,24.20
2015,07,08,14,50,24.10
2015,07,08,14,51,24.20
2015,07,08,14,52,24.20
2015,07,08,14,53,24.20
2015,07,08,14,54,24.20
2015,07,08,14,55,24.10
2015,07,08,14,56,24.10
2015,07,08,14,57,24.10
2015,07,08,14,58,24.10
2015,07,08,14,59,24.10
2015,07,08,15,00,24.10
2015,07,08,15,01,24.10
2015,07,08,15,02,24.20
2015,07,08,15,03,24.30
2015,07,08,15,04,24.40
2015,07,08,15,05,24.40
2015,07,08,15,06,24.20
2015,07,08,15,07,24.20
2015,07,08,15,08,24.30
2015,07,08,15,09,24.20
2015,07,08,15,10,24.20
2015,07,08,15,11,24.20
2015,07,08,15,12,24.20
2015,07,08,15,13,24.10
2015,07,08,15,14,24.10
2015,07,08,15,15,24.10
2015,07,08,15,16,24.10
2015,07,08,15,17,24.20
2015,07,08,15,18,24.20
2015,07,08,15,19,24.30
2015,07,08,15,20,24.30
2015,07,08,15,21,24.20
2015,07,08,15,22,24.10
2015,07,08,15,23,24.20
2015,07,08,15,24,24.20
2015,07,08,15,25,24.20
2015,07,08,15,26,24.30
2015,07,08,15,27,24.20
2015,07,08,15,28,24.10
2015,07,08,15,29,24.10
2015,07,08,15,30,24.20
2015,07,08,15,31,24.20
2015,07,08,15,32,24.10
2015,07,08,15,33,24.20
2015,07,08,15,34,24.10
2015,07,08,15,35,24.10
2015,07,08,15,36,24.10
2015,07,08,15,37,24.10
2015,07,08,15,38,24.40
2015,07,08,15,39,24.40
2015,07,08,15,40,24.40
2015,07,08,15,41,24.10
2015,07,08,15,42,24.10
2015,07,08,15,43,24.10
2015,07,08,15,44,24.10
2015,07,08,15,45,24.10
2015,07,08,15,46,24.10
2015,07,08,15,47,24.10
2015,07,08,15,48,24.10
2015,07,08,15,49,24.10
2015,07,08,15,50,24.10
2015,07,08,15,51,24.00
2015,07,08,15,52,23.90
2015,07,08,15,53,23.90
2015,07,08,15,54,23.80
2015,07,08,15,55,23.80
2015,07,08,15,56,23.90
2015,07,08,15,57,23.90
2015,07,08,15,58,24.00
2015,07,08,15,59,24.10
2015,07,08,16,00,24.20
2015,07,08,16,01,24.20
2015,07,08,16,02,24.20
2015,07,08,16,03,24.20
2015,07,08,16,04,24.10
2015,07,08,16,05,24.20
2015,07,08,16,06,24.30
2015,07,08,16,07,24.30
2015,07,08,16,08,24.30
2015,07,08,16,09,24.30
2015,07,08,16,10,24.30
2015,07,08,16,11,24.20
2015,07,08,16,12,24.20
2015,07,08,16,13,24.30
2015,07,08,16,14,24.40
2015,07,08,16,15,24.50
2015,07,08,16,16,24.50
2015,07,08,16,17,24.50
2015,07,08,16,18,24.40
2015,07,08,16,19,24.40
2015,07,08,16,20,24.50
2015,07,08,16,21,24.50
2015,07,08,16,22,24.50
2015,07,08,16,23,24.60
2015,07,08,16,24,24.60
2015,07,08,16,25,24.50
2015,07,08,16,26,24.50
2015,07,08,16,27,24.50
2015,07,08,16,28,24.60
2015,07,08,16,29,24.60
2015,07,08,16,30,24.60
2015,07,08,16,31,24.60
2015,07,08,16,32,24.60
2015,07,08,16,33,24.70
2015,07,08,16,34,24.70
2015,07,08,16,35,24.70
2015,07,08,16,36,24.70
2015,07,08,16,37,24.70
2015,07,08,16,38,24.80
2015,07,08,16,39,24.90
2015,07,08,16,40,24.90
2015,07,08,16,41,24.90
2015,07,08,16,42,25.00
2015,07,08,16,43,25.10
2015,07,08,16,44,25.10
2015,07,08,16,45,25.00
2015,07,08,16,46,25.10
2015,07,08,16,47,25.10
2015,07,08,16,48,25.00
2015,07,08,16,49,25.00
2015,07,08,16,50,25.00
2015,07,08,16,51,25.00
2015,07,08,16,52,25.10
2015,07,08,16,53,25.10
2015,07,08,16,54,25.10
2015,07,08,16,55,25.10
2015,07,08,16,56,25.10
2015,07,08,16,57,25.10
2015,07,08,16,58,25.10
2015,07,08,16,59,25.10
2015,07,08,17,00,25.10
2015,07,08,17,01,25.20
2015,07,08,17,02,25.30
2015,07,08,17,03,25.50
2015,07,08,17,04,25.50
2015,07,08,17,05,25.50
2015,07,08,17,06,25.50
2015,07,08,17,07,25.40
2015,07,08,17,08,25.40
2015,07,08,17,09,25.30
2015,07,08,17,10,25.30
2015,07,08,17,11,25.30
2015,07,08,17,12,25.30
2015,07,08,17,13,25.20
2015,07,08,17,14,25.10
2015,07,08,17,15,25.10
2015,07,08,17,16,25.10
2015,07,08,17,17,25.00
2015,07,08,17,18,25.00
2015,07,08,17,19,25.00